Location: Caltech
(34.1382°N, 118.1253°W)
Time: 22:17:15
(UTC-07:00)

ITAMSAT 1 - Visible Passes

Search period start: 24 June 2016 00:00
Search period end: 04 July 2016 00:00
Orbit: 785 x 796 km, 98.8° (Epoch: 24 June)

Date Brightness Start Highest point End Pass type
(mag) Time Alt. Az. Time Alt. Az. Time Alt. Az.
24 Jun 8.6 03:19:05 10° NNE 03:24:03 43° E 03:26:41 25° SSE visible
24 Jun 9.2 04:59:28 10° NNW 05:03:10 20° WNW 05:06:51 10° WSW visible
25 Jun 9.6 02:50:36 10° NE 02:54:36 22° E 02:56:59 16° SE visible
25 Jun 8.4 04:29:18 10° N 04:34:06 37° WNW 04:37:43 16° SW visible
26 Jun 10.2 02:24:15 10° E 02:25:00 10° E 02:25:45 10° E visible
26 Jun 7.6 03:59:41 10° N 04:04:56 74° WNW 04:08:00 25° SSW visible
27 Jun 8.1 03:30:28 10° NNE 03:35:37 56° ESE 03:38:18 27° SSE visible
27 Jun 9.5 05:11:35 10° NNW 05:14:34 15° WNW 05:17:32 10° W visible
28 Jun 9.2 03:01:43 10° NE 03:06:12 28° E 03:08:36 20° SE visible
28 Jun 8.7 04:41:05 10° N 04:45:33 29° WNW 04:49:20 13° WSW visible
29 Jun 10.0 02:33:58 10° ENE 02:36:39 14° E 02:38:54 11° ESE visible
29 Jun 7.8 04:11:17 10° N 04:16:25 57° WNW 04:19:37 22° SW visible
30 Jun 7.8 03:41:55 10° NNE 03:47:09 74° ESE 03:49:55 28° S visible
01 Jul 8.8 03:12:57 10° NNE 03:17:46 36° E 03:20:12 24° SSE visible
01 Jul 9.0 04:52:57 10° NNW 04:56:58 23° WNW 05:00:56 10° WSW visible
02 Jul 9.7 02:44:42 10° NE 02:48:17 19° E 02:50:29 15° SE visible
02 Jul 8.2 04:22:57 10° N 04:27:53 43° WNW 04:31:13 19° SW visible
03 Jul 7.6 03:53:25 10° NNE 03:58:41 86° WNW 04:01:30 28° SSW visible
